This is the latest recevied weather packets stored in our database for station/object N5RPG. If no packets are shown the sender has not sent any weather packets the latest 10 day(s).
| Time | Temp. | Humidity | Pressure | Rain* | Wind** | Luminosity | Snow |
|---|---|---|---|---|---|---|---|
| 1777912811 | 23.89° C | 50% | 1016.1 hPa | 0 mm | - | 905 W/m² | - |
| 1777912507 | 23.89° C | 50% | 1016 hPa | 0 mm | - | 895 W/m² | - |
| 1777912204 | 23.89° C | 49% | 1016.1 hPa | 0 mm | - | 894 W/m² | - |
| 1777911900 | 23.89° C | 50% | 1016.3 hPa | 0 mm | - | 824 W/m² | - |
| 1777911596 | 23.33° C | 50% | 1016.1 hPa | 0 mm | - | 852 W/m² | - |
| 1777911292 | 23.33° C | 50% | 1016.1 hPa | 0 mm | - | 837 W/m² | - |
| 1777910990 | 23.33° C | 52% | 1016.2 hPa | 0 mm | - | 744 W/m² | - |
| 1777910688 | 23.33° C | 53% | 1016.4 hPa | 0 mm | - | 729 W/m² | - |
| 1777910384 | 23.33° C | 54% | 1016.4 hPa | 0 mm | - | 776 W/m² | - |
| 1777910081 | 22.78° C | 53% | 1016.3 hPa | 0 mm | - | 767 W/m² | - |
| 1777909779 | 22.78° C | 55% | 1016.6 hPa | 0 mm | - | 700 W/m² | - |
| 1777909475 | 22.78° C | 54% | 1016.4 hPa | 0 mm | - | 786 W/m² | - |
| 1777909173 | 22.22° C | 55% | 1016.5 hPa | 0 mm | - | 676 W/m² | - |
| 1777908871 | 22.22° C | 54% | 1016.5 hPa | 0 mm | - | 465 W/m² | - |
| 1777908568 | 22.22° C | 55% | 1016.6 hPa | 0 mm | - | 765 W/m² | - |
| 1777908264 | 22.22° C | 57% | 1016.5 hPa | 0 mm | - | 705 W/m² | - |
| 1777907961 | 22.78° C | 57% | 1016.6 hPa | 0 mm | - | 697 W/m² | - |
| 1777907656 | 22.22° C | 58% | 1016.4 hPa | 0 mm | - | 610 W/m² | - |
| 1777907352 | 21.67° C | 60% | 1016.6 hPa | 0 mm | - | 492 W/m² | - |
| 1777907049 | 21.11° C | 60% | 1016.5 hPa | 0 mm | - | 641 W/m² | - |
| 1777906746 | 21.11° C | 59% | 1016.6 hPa | 0 mm | - | 537 W/m² | - |
| 1777906442 | 21.11° C | 61% | 1016.5 hPa | 0 mm | - | 602 W/m² | - |
| 1777906139 | 21.11° C | 63% | 1016.5 hPa | 0 mm | - | 571 W/m² | - |
| 1777905836 | 21.11° C | 63% | 1016.6 hPa | 0 mm | - | 568 W/m² | - |
| 1777905533 | 20.56° C | 64% | 1016.6 hPa | 0 mm | - | 544 W/m² | - |
* Rain latest hour (hover to see other rain measurements)
** Current wind speed in m/s (hover to see current wind gust speed)